Location: Frankfurt am Main
(50.1109°N, 8.6821°E)
Time: 19:50:00
(UTC+01:00)

ISS - Visible Passes

Search period start: 22 February 2024 00:00
Search period end: 03 March 2024 00:00
Orbit: 414 x 417 km, 51.6° (Epoch: 22 February)

Date Brightness Start Highest point End Pass type
(mag) Time Alt. Az. Time Alt. Az. Time Alt. Az.
22 Feb -3.0 05:19:19 44° SSE 05:19:28 44° SSE 05:22:42 10° E visible
23 Feb -1.1 04:32:42 19° E 04:32:42 19° E 04:33:59 10° E visible
23 Feb -3.8 06:05:35 23° W 06:07:31 83° NNW 06:10:53 10° ENE visible
24 Feb -3.8 05:18:53 79° SSE 05:18:53 79° SSE 05:22:14 10° ENE visible
25 Feb -1.3 04:32:06 23° E 04:32:06 23° E 04:33:33 10° ENE visible
25 Feb -3.6 06:04:59 22° W 06:06:59 66° N 06:10:20 10° E visible
26 Feb -3.8 05:18:09 72° NNW 05:18:15 73° N 05:21:37 10° ENE visible
27 Feb -1.5 04:31:17 26° ENE 04:31:17 26° ENE 04:32:52 10° ENE visible
27 Feb -3.6 06:04:09 20° WNW 06:06:22 67° N 06:09:43 10° E visible
28 Feb -3.7 05:17:15 60° NW 05:17:33 64° N 05:20:54 10° E visible
29 Feb -1.7 04:30:19 28° ENE 04:30:19 28° ENE 04:32:05 10° ENE visible
29 Feb -3.8 06:03:12 18° WNW 06:05:35 86° NNE 06:08:56 10° ESE visible
01 Mar -3.7 05:16:16 59° NW 05:16:44 73° N 05:20:06 10° E visible
02 Mar -1.8 04:29:20 30° ENE 04:29:20 30° ENE 04:31:11 10° E visible
02 Mar -3.6 06:02:12 17° W 06:04:36 59° SSW 06:07:53 10° SE visible
